Weather in Baysun

Uzbekistan     38˚12′29″N   67˚12′25″E
temp.,
°C
wind,
m/s
gust,
m/s
humid.,
%
clouds,
%
prec.,
mm/h
press.,
hPa
HPBL,
m
28 november, sat
sat2823:00+3˚nne6673100 1.0 1028139
02:00+4˚nw2372100 0.7 103375
05:00+2˚nw4474100 1.9 1038167
08:00+1˚nnw126871 0.1 104232
11:00+2˚ese337135 0.1 1042330
14:00+2˚ese228023 0.0 1040448
17:00+1˚sse117918 0.0 1038119
20:00ne225433 0.0 103728
29 november, sun
sun2923:00nne224352 0.0 103626
02:00n224078 0.0 103422
05:00n113289 0.0 103322
08:00n113296 0.0 103222
11:00+6˚s102598 0.0 1031152
14:00+7˚ssw2133100 0.0 1029193
17:00+4˚w0145100 0.0 102922
20:00+2˚ne1145100 0.0 102922
30 november, mon
mon3023:00+1˚nne114093 0.0 102922
02:00+1˚nne12300 0.0 102822
05:00nne11254 0.0 102622
08:00+2˚nne222267 0.0 102622
11:00+8˚ne111983 0.0 1025100
14:00+9˚sse1123100 0.0 1022201
17:00+5˚ene1130100 0.0 102122
20:00+5˚ne2224100 0.0 102123
1 december, tue
tue123:00+6˚ne1223100 0.0 102122
02:00+6˚nne4433100 0.3 102256
05:00+5˚nne2269100 0.4 102324
08:00+4˚n2281100 1.1 102545
11:00+6˚se1170100 1.4 1025408
14:00+6˚ese107495 0.4 1024263
17:00+4˚sse117960 0.4 102423
20:00+3˚ene12850 0.0 102622
2 december, wed
wed223:00+3˚ne22800 0.0 102622
02:00+4˚nne23660 0.0 102523
05:00+3˚ne126619 0.0 102522
08:00+5˚ne235783 0.0 102523
11:00+11˚sw004479 0.0 1024198
14:00+10˚nne4361100 0.3 1022173
17:00+7˚nne116494 0.3 102122
20:00+6˚ne116498 0.0 102122